| time (UTC) | temp C | wind direction | speed KPH | gust KPH | rain 1hr cm | rain 24hr cm | rain mn cm | humidity % | barometer mb |
| 20260906115421 | 15 | 201 | 0.0 | 1.6 | 0.00 | 0.00 | 0.00 | 97 | 1019.6 |
| 20260906114915 | 15 | 201 | 0.0 | 3.2 | 0.00 | 0.00 | 0.00 | 97 | 1019.5 |
| 20260906114410 | 15 | 200 | 0.0 | 1.6 | 0.00 | 0.00 | 0.00 | 98 | 1019.7 |
| 20260906113906 | 15 | 207 | 0.0 | 0.0 | 0.00 | 0.00 | 0.00 | 98 | 1019.5 |
| 20260906113404 | 15 | 207 | 0.0 | 1.6 | 0.00 | 0.00 | 0.00 | 97 | 1019.4 |
| 20260906112900 | 15 | 197 | 3.2 | 3.2 | 0.00 | 0.00 | 0.00 | 97 | 1019.1 |
| 20260906112355 | 14 | 209 | 0.0 | 1.6 | 0.00 | 0.00 | 0.00 | 97 | 1019.0 |
| 20260906111850 | 15 | 205 | 1.6 | 3.2 | 0.00 | 0.00 | 0.00 | 97 | 1018.9 |
| 20260906111349 | 15 | 209 | 0.0 | 1.6 | 0.00 | 0.00 | 0.00 | 97 | 1019.0 |
| 20260906110845 | 15 | 209 | 0.0 | 1.6 | 0.00 | 0.00 | 0.00 | 97 | 1019.1 |
| 20260906110340 | 15 | 215 | 1.6 | 1.6 | 0.00 | 0.00 | 0.00 | 97 | 1019.1 |
| 20260906105839 | 15 | 201 | 0.0 | 1.6 | 0.00 | 0.00 | 0.00 | 97 | 1019.1 |
| 20260906105335 | 15 | 201 | 1.6 | 3.2 | 0.00 | 0.00 | 0.00 | 97 | 1019.0 |
| 20260906104831 | 15 | 207 | 0.0 | 3.2 | 0.00 | 0.00 | 0.00 | 97 | 1019.0 |
| 20260906104329 | 15 | 213 | 0.0 | 0.0 | 0.00 | 0.00 | 0.00 | 97 | 1019.0 |
| 20260906103822 | 15 | 198 | 1.6 | 3.2 | 0.00 | 0.00 | 0.00 | 97 | 1018.7 |
| 20260906103321 | 15 | 205 | 1.6 | 3.2 | 0.00 | 0.00 | 0.00 | 96 | 1019.0 |
| 20260906102817 | 15 | 207 | 1.6 | 3.2 | 0.00 | 0.00 | 0.00 | 96 | 1018.9 |
| 20260906102316 | 15 | 209 | 0.0 | 1.6 | 0.00 | 0.00 | 0.00 | 96 | 1018.8 |
| 20260906101811 | 15 | 206 | 0.0 | 3.2 | 0.00 | 0.00 | 0.00 | 96 | 1019.0 |
| 20260906101306 | 15 | 206 | 1.6 | 8.0 | 0.00 | 0.00 | 0.00 | 96 | 1018.5 |
| 20260906100802 | 15 | 207 | 1.6 | 3.2 | 0.00 | 0.00 | 0.00 | 96 | 1018.6 |
| 20260906100301 | 15 | 205 | 1.6 | 1.6 | 0.00 | 0.00 | 0.00 | 95 | 1018.5 |
| 20260906095756 | 15 | 201 | 1.6 | 3.2 | 0.00 | 0.00 | 0.00 | 95 | 1018.5 |
| 20260906095251 | 15 | 201 | 1.6 | 3.2 | 0.00 | 0.00 | 0.00 | 95 | 1018.3 |
| 20260906094750 | 15 | 201 | 1.6 | 3.2 | 0.00 | 0.00 | 0.00 | 95 | 1018.5 |
| 20260906094246 | 15 | 206 | 1.6 | 1.6 | 0.00 | 0.00 | 0.00 | 95 | 1018.4 |
| 20260906093742 | 15 | 205 | 1.6 | 1.6 | 0.00 | 0.00 | 0.00 | 95 | 1018.6 |
| 20260906093238 | 15 | 205 | 0.0 | 1.6 | 0.00 | 0.00 | 0.00 | 94 | 1018.6 |
| 20260906092733 | 15 | 201 | 1.6 | 1.6 | 0.00 | 0.00 | 0.00 | 94 | 1018.7 |
| 20260906092232 | 15 | 209 | 0.0 | 1.6 | 0.00 | 0.00 | 0.00 | 94 | 1018.6 |
| 20260906091728 | 16 | 201 | 1.6 | 1.6 | 0.00 | 0.00 | 0.00 | 94 | 1018.7 |
| 20260906091224 | 15 | 205 | 1.6 | 1.6 | 0.00 | 0.00 | 0.00 | 94 | 1018.3 |
| 20260906090720 | 15 | 187 | 1.6 | 4.8 | 0.00 | 0.00 | 0.00 | 95 | 1018.3 |
| 20260906090219 | 15 | 179 | 1.6 | 1.6 | 0.00 | 0.00 | 0.00 | 95 | 1018.4 |
| 20260906085719 | 15 | 207 | 1.6 | 3.2 | 0.00 | 0.00 | 0.00 | 95 | 1018.3 |
| 20260906085218 | 16 | 210 | 0.0 | 1.6 | 0.00 | 0.00 | 0.00 | 95 | 1018.1 |
| 20260906084712 | 16 | 183 | 3.2 | 3.2 | 0.00 | 0.00 | 0.00 | 95 | 1018.3 |
| 20260906084207 | 16 | 177 | 1.6 | 4.8 | 0.00 | 0.00 | 0.00 | 95 | 1018.4 |
| 20260906083702 | 16 | 217 | 0.0 | 1.6 | 0.00 | 0.00 | 0.00 | 95 | 1018.3 |
| 20260906083157 | 16 | 190 | 3.2 | 3.2 | 0.00 | 0.00 | 0.00 | 95 | 1018.1 |
| 20260906082652 | 16 | 191 | 3.2 | 4.8 | 0.00 | 0.00 | 0.00 | 96 | 1017.8 |
| 20260906082148 | 16 | 198 | 3.2 | 4.8 | 0.00 | 0.00 | 0.00 | 96 | 1018.0 |
| 20260906081644 | 16 | 197 | 1.6 | 3.2 | 0.00 | 0.00 | 0.00 | 96 | 1017.9 |
| 20260906081138 | 16 | 183 | 3.2 | 4.8 | 0.00 | 0.00 | 0.00 | 97 | 1017.8 |
| 20260906080635 | 16 | 218 | 0.0 | 0.0 | 0.00 | 0.00 | 0.00 | 96 | 1018.0 |
| 20260906080131 | 16 | 218 | 0.0 | 0.0 | 0.00 | 0.00 | 0.00 | 96 | 1017.8 |
| 20260906075630 | 16 | 218 | 0.0 | 0.0 | 0.00 | 0.00 | 0.00 | 96 | 1017.8 |
| 20260906075125 | 16 | 218 | 0.0 | 0.0 | 0.00 | 0.00 | 0.00 | 96 | 1018.0 |
| 20260906074620 | 16 | 217 | 0.0 | 0.0 | 0.00 | 0.00 | 0.00 | 95 | 1018.0 |
| 20260906074119 | 16 | 214 | 0.0 | 3.2 | 0.00 | 0.00 | 0.00 | 95 | 1017.8 |
| 20260906073614 | 16 | 205 | 1.6 | 1.6 | 0.00 | 0.00 | 0.00 | 95 | 1017.7 |
| 20260906073110 | 16 | 210 | 0.0 | 1.6 | 0.00 | 0.00 | 0.00 | 96 | 1017.7 |
| 20260906072605 | 16 | 223 | 0.0 | 0.0 | 0.00 | 0.00 | 0.00 | 96 | 1017.7 |
| 20260906072101 | 16 | 221 | 0.0 | 0.0 | 0.00 | 0.00 | 0.00 | 95 | 1017.7 |
| 20260906071557 | 17 | 222 | 0.0 | 0.0 | 0.00 | 0.00 | 0.00 | 95 | 1017.6 |
| 20260906071051 | 17 | 219 | 0.0 | 0.0 | 0.00 | 0.00 | 0.00 | 95 | 1017.7 |
| 20260906070548 | 17 | 207 | 0.0 | 1.6 | 0.00 | 0.00 | 0.00 | 95 | 1017.9 |
| 20260906070043 | 17 | 210 | 0.0 | 1.6 | 0.00 | 0.00 | 0.00 | 95 | 1017.9 |
| 20260906065543 | 17 | 217 | 0.0 | 0.0 | 0.00 | 0.00 | 0.00 | 94 | 1017.7 |
| 20260906065038 | 17 | 217 | 0.0 | 0.0 | 0.00 | 0.00 | 0.00 | 94 | 1017.8 |
| 20260906064534 | 17 | 215 | 0.0 | 1.6 | 0.00 | 0.00 | 0.00 | 94 | 1018.0 |
| 20260906064029 | 17 | 219 | 0.0 | 0.0 | 0.00 | 0.00 | 0.00 | 94 | 1017.8 |
| 20260906063524 | 17 | 209 | 1.6 | 1.6 | 0.00 | 0.00 | 0.00 | 94 | 1017.9 |
| 20260906063020 | 17 | 203 | 1.6 | 1.6 | 0.00 | 0.00 | 0.00 | 94 | 1017.9 |
| 20260906062515 | 18 | 234 | 0.0 | 1.6 | 0.00 | 0.00 | 0.00 | 93 | 1017.7 |
| 20260906062009 | 18 | 136 | 3.2 | 3.2 | 0.00 | 0.00 | 0.00 | 92 | 1017.7 |
| 20260906061506 | 18 | 178 | 3.2 | 4.8 | 0.00 | 0.00 | 0.00 | 92 | 1017.7 |
| 20260906060959 | 18 | 181 | 0.0 | 3.2 | 0.00 | 0.00 | 0.00 | 92 | 1017.8 |
| 20260906060457 | 18 | 227 | 1.6 | 4.8 | 0.00 | 0.00 | 0.00 | 92 | 1017.6 |
| 20260906055953 | 18 | 217 | 1.6 | 9.7 | 0.00 | 0.00 | 0.00 | 92 | 1017.6 |
| 20260906055449 | 18 | 195 | 4.8 | 8.0 | 0.00 | 0.00 | 0.00 | 92 | 1017.7 |
| 20260906054944 | 18 | 199 | 1.6 | 3.2 | 0.00 | 0.00 | 0.00 | 91 | 1017.8 |
| 20260906054443 | 18 | 197 | 1.6 | 3.2 | 0.00 | 0.00 | 0.00 | 91 | 1017.6 |
| 20260906053939 | 18 | 174 | 3.2 | 4.8 | 0.00 | 0.00 | 0.00 | 91 | 1017.6 |
| 20260906053435 | 18 | 123 | 4.8 | 4.8 | 0.00 | 0.00 | 0.00 | 91 | 1017.6 |
| 20260906052931 | 18 | 188 | 3.2 | 4.8 | 0.00 | 0.00 | 0.00 | 91 | 1017.6 |
| 20260906052427 | 18 | 185 | 1.6 | 3.2 | 0.00 | 0.00 | 0.00 | 91 | 1017.7 |
| 20260906051924 | 19 | 196 | 1.6 | 3.2 | 0.00 | 0.00 | 0.00 | 90 | 1017.4 |
| 20260906051424 | 19 | 130 | 1.6 | 3.2 | 0.00 | 0.00 | 0.00 | 90 | 1017.4 |
| 20260906050919 | 19 | 180 | 4.8 | 4.8 | 0.00 | 0.00 | 0.00 | 89 | 1017.6 |
| 20260906050414 | 20 | 163 | 1.6 | 3.2 | 0.00 | 0.00 | 0.00 | 89 | 1017.6 |
| 20260906045913 | 20 | 174 | 3.2 | 8.0 | 0.00 | 0.00 | 0.00 | 89 | 1017.2 |
| 20260906045412 | 20 | 162 | 4.8 | 8.0 | 0.00 | 0.00 | 0.00 | 88 | 1017.4 |
| 20260906044908 | 20 | 148 | 4.8 | 9.7 | 0.00 | 0.00 | 0.00 | 87 | 1017.1 |
| 20260906044403 | 20 | 153 | 3.2 | 4.8 | 0.00 | 0.00 | 0.00 | 87 | 1017.2 |
| 20260906043859 | 20 | 144 | 3.2 | 9.7 | 0.00 | 0.00 | 0.00 | 87 | 1017.1 |
| 20260906043354 | 20 | 178 | 3.2 | 9.7 | 0.00 | 0.00 | 0.00 | 86 | 1017.0 |
| 20260906042850 | 20 | 182 | 1.6 | 8.0 | 0.00 | 0.00 | 0.00 | 87 | 1017.1 |
| 20260906042348 | 20 | 177 | 3.2 | 4.8 | 0.00 | 0.00 | 0.00 | 86 | 1017.1 |
| 20260906041844 | 20 | 119 | 8.0 | 9.7 | 0.00 | 0.00 | 0.00 | 86 | 1017.0 |
| 20260906041340 | 21 | 159 | 4.8 | 8.0 | 0.00 | 0.00 | 0.00 | 86 | 1017.0 |
| 20260906040839 | 21 | 111 | 12.9 | 14.5 | 0.00 | 0.00 | 0.00 | 86 | 1017.0 |
| 20260906040334 | 20 | 164 | 6.4 | 9.7 | 0.00 | 0.00 | 0.00 | 87 | 1016.8 |
| 20260906035830 | 21 | 209 | 1.6 | 4.8 | 0.00 | 0.25 | 0.25 | 88 | 1016.9 |
| 20260906035325 | 21 | 112 | 4.8 | 4.8 | 0.00 | 0.25 | 0.25 | 87 | 1016.9 |
| 20260906034820 | 21 | 162 | 1.6 | 8.0 | 0.00 | 0.25 | 0.25 | 88 | 1016.8 |
| 20260906034315 | 20 | 205 | 0.0 | 3.2 | 0.00 | 0.25 | 0.25 | 89 | 1016.9 |
| 20260906033811 | 21 | 216 | 0.0 | 4.8 | 0.00 | 0.25 | 0.25 | 89 | 1016.9 |
| 20260906033310 | 21 | 180 | 4.8 | 4.8 | 0.00 | 0.25 | 0.25 | 89 | 1016.9 |
| 20260906032807 | 20 | 124 | 3.2 | 4.8 | 0.00 | 0.25 | 0.25 | 89 | 1017.0 |
| 20260906032305 | 21 | 190 | 1.6 | 9.7 | 0.00 | 0.25 | 0.25 | 90 | 1016.9 |
| 20260906031757 | 20 | 192 | 1.6 | 3.2 | 0.00 | 0.25 | 0.25 | 90 | 1017.0 |
| 20260906031253 | 20 | 197 | 3.2 | 8.0 | 0.00 | 0.25 | 0.25 | 90 | 1016.8 |
| 20260906030753 | 21 | 190 | 4.8 | 4.8 | 0.00 | 0.25 | 0.25 | 90 | 1017.0 |
| 20260906030248 | 21 | 179 | 4.8 | 4.8 | 0.00 | 0.25 | 0.25 | 91 | 1016.9 |
| 20260906025747 | 21 | 215 | 0.0 | 1.6 | 0.00 | 0.25 | 0.25 | 90 | 1016.7 |
| 20260906025242 | 21 | 144 | 4.8 | 4.8 | 0.00 | 0.25 | 0.25 | 90 | 1016.8 |
| 20260906024741 | 21 | 155 | 3.2 | 8.0 | 0.00 | 0.25 | 0.25 | 91 | 1016.7 |
| 20260906024240 | 21 | 191 | 1.6 | 4.8 | 0.00 | 0.25 | 0.25 | 91 | 1016.7 |
| 20260906023736 | 21 | 187 | 1.6 | 4.8 | 0.00 | 0.25 | 0.25 | 91 | 1016.5 |
| 20260906023231 | 21 | 161 | 3.2 | 4.8 | 0.00 | 0.25 | 0.25 | 91 | 1016.6 |
| 20260906022726 | 21 | 202 | 3.2 | 8.0 | 0.00 | 0.25 | 0.25 | 91 | 1016.4 |
| 20260906022221 | 21 | 209 | 1.6 | 8.0 | 0.00 | 0.25 | 0.25 | 91 | 1016.3 |
| 20260906021717 | 21 | 215 | 0.0 | 8.0 | 0.00 | 0.25 | 0.25 | 92 | 1016.3 |
| 20260906021216 | 21 | 208 | 4.8 | 9.7 | 0.00 | 0.25 | 0.25 | 93 | 1016.2 |
| 20260906020711 | 21 | 203 | 1.6 | 3.2 | 0.00 | 0.25 | 0.25 | 95 | 1016.3 |
| 20260906020206 | 20 | 206 | 1.6 | 3.2 | 0.00 | 0.25 | 0.25 | 96 | 1016.4 |
| 20260906015700 | 20 | 142 | 3.2 | 4.8 | 0.00 | 0.25 | 0.25 | 98 | 1016.2 |
| 20260906015158 | 20 | 227 | 1.6 | 3.2 | 0.00 | 0.25 | 0.25 | 98 | 1016.1 |
| 20260906014653 | 20 | 218 | 1.6 | 3.2 | 0.00 | 0.25 | 0.25 | 99 | 1016.3 |
| 20260906014149 | 20 | 240 | 0.0 | 1.6 | 0.00 | 0.25 | 0.25 | 99 | 1016.1 |
| 20260906013645 | 20 | 244 | 0.0 | 3.2 | 0.00 | 0.25 | 0.25 | 99 | 1016.0 |
| 20260906013140 | 20 | 231 | 0.0 | 0.0 | 0.00 | 0.25 | 0.25 | 99 | 1015.8 |
| 20260906012639 | 20 | 232 | 0.0 | 0.0 | 0.00 | 0.25 | 0.25 | 99 | 1016.2 |
| 20260906012134 | 21 | 232 | 0.0 | 0.0 | 0.00 | 0.25 | 0.25 | 99 | 1016.1 |
| 20260906011630 | 21 | 232 | 0.0 | 0.0 | 0.00 | 0.25 | 0.25 | 98 | 1016.0 |
| 20260906011125 | 21 | 231 | 0.0 | 0.0 | 0.00 | 0.25 | 0.25 | 98 | 1015.9 |
| 20260906010619 | 21 | 231 | 0.0 | 0.0 | 0.00 | 0.25 | 0.25 | 98 | 1015.8 |
| 20260906010116 | 21 | 231 | 0.0 | 0.0 | 0.00 | 0.25 | 0.25 | 98 | 1015.9 |
| 20260906005610 | 21 | 231 | 0.0 | 0.0 | 0.00 | 0.25 | 0.25 | 98 | 1015.6 |
| 20260906005109 | 21 | 231 | 0.0 | 0.0 | 0.00 | 0.25 | 0.25 | 98 | 1015.8 |
| 20260906004608 | 21 | 231 | 0.0 | 0.0 | 0.00 | 0.25 | 0.25 | 97 | 1015.7 |
| 20260906004103 | 21 | 231 | 0.0 | 0.0 | 0.00 | 0.25 | 0.25 | 97 | 1015.5 |
| 20260906003559 | 21 | 231 | 0.0 | 0.0 | 0.00 | 0.25 | 0.25 | 97 | 1015.6 |
| 20260906003054 | 21 | 231 | 0.0 | 1.6 | 0.00 | 0.25 | 0.25 | 97 | 1015.6 |
| 20260906002549 | 21 | 231 | 1.6 | 1.6 | 0.00 | 0.25 | 0.25 | 97 | 1015.7 |
| 20260906002043 | 22 | 229 | 1.6 | 1.6 | 0.00 | 0.25 | 0.25 | 96 | 1015.3 |
| 20260906001539 | 22 | 228 | 1.6 | 1.6 | 0.00 | 0.25 | 0.25 | 96 | 1015.3 |
| 20260906001033 | 22 | 231 | 0.0 | 0.0 | 0.00 | 0.25 | 0.25 | 95 | 1015.3 |
| 20260906000530 | 22 | 231 | 0.0 | 1.6 | 0.00 | 0.25 | 0.25 | 95 | 1015.3 |
| 20260906000024 | 22 | 231 | 1.6 | 1.6 | 0.00 | 0.25 | 0.25 | 94 | 1015.3 |
| 20260905235518 | 23 | 229 | 1.6 | 1.6 | 0.00 | 0.25 | 0.25 | 93 | 1015.5 |
| 20260905235013 | 23 | 229 | 0.0 | 0.0 | 0.00 | 0.25 | 0.25 | 92 | 1015.5 |
| 20260905234508 | 23 | 226 | 0.0 | 1.6 | 0.00 | 0.25 | 0.25 | 91 | 1015.5 |
| 20260905234003 | 23 | 210 | 0.0 | 0.0 | 0.00 | 0.25 | 0.25 | 91 | 1015.3 |
| 20260905233458 | 23 | 206 | 1.6 | 3.2 | 0.00 | 0.25 | 0.25 | 90 | 1015.3 |
| 20260905232956 | 23 | 230 | 1.6 | 3.2 | 0.00 | 0.25 | 0.25 | 91 | 1015.6 |
| 20260905232453 | 23 | 230 | 1.6 | 3.2 | 0.00 | 0.25 | 0.25 | 91 | 1015.6 |
| 20260905231949 | 23 | 230 | 1.6 | 3.2 | 0.00 | 0.25 | 0.25 | 91 | 1015.3 |
| 20260905231444 | 23 | 205 | 1.6 | 1.6 | 0.00 | 0.25 | 0.25 | 92 | 1015.3 |
| 20260905230941 | 23 | 194 | 1.6 | 1.6 | 0.00 | 0.25 | 0.25 | 91 | 1015.3 |
| 20260905230438 | 23 | 65 | 3.2 | 3.2 | 0.00 | 0.25 | 0.25 | 91 | 1015.6 |
| 20260905225931 | 22 | 156 | 3.2 | 3.2 | 0.00 | 0.25 | 0.25 | 92 | 1015.5 |
| 20260905225427 | 22 | 156 | 3.2 | 3.2 | 0.00 | 0.25 | 0.25 | 92 | 1015.3 |
| 20260905224922 | 22 | 156 | 3.2 | 3.2 | 0.00 | 0.25 | 0.25 | 92 | 1015.3 |
| 20260905224417 | 22 | 156 | 3.2 | 3.2 | 0.00 | 0.25 | 0.25 | 92 | 1015.2 |
| 20260905223911 | 22 | 175 | 3.2 | 4.8 | 0.00 | 0.25 | 0.25 | 92 | 1015.3 |
| 20260905223409 | 23 | 171 | 3.2 | 4.8 | 0.00 | 0.25 | 0.25 | 92 | 1015.0 |
| 20260905222909 | 23 | 352 | 4.8 | 8.0 | 0.00 | 0.25 | 0.25 | 92 | 1015.0 |
| 20260905222408 | 23 | 190 | 3.2 | 12.9 | 0.00 | 0.25 | 0.25 | 91 | 1015.1 |
| 20260905221904 | 23 | 161 | 6.4 | 12.9 | 0.00 | 0.25 | 0.25 | 91 | 1014.9 |
| 20260905221401 | 22 | 207 | 1.6 | 14.5 | 0.00 | 0.25 | 0.25 | 91 | 1014.9 |
| 20260905220856 | 22 | 150 | 4.8 | 11.3 | 0.00 | 0.25 | 0.25 | 92 | 1014.9 |
| 20260905220352 | 22 | 161 | 11.3 | 12.9 | 0.00 | 0.25 | 0.25 | 92 | 1014.9 |
| 20260905215851 | 22 | 143 | 11.3 | 12.9 | 0.00 | 0.25 | 0.25 | 92 | 1015.1 |
| 20260905215347 | 22 | 117 | 14.5 | 16.1 | 0.00 | 0.25 | 0.25 | 92 | 1015.1 |
| 20260905214844 | 22 | 171 | 3.2 | 12.9 | 0.00 | 0.25 | 0.25 | 93 | 1014.9 |
| 20260905214339 | 22 | 106 | 6.4 | 9.7 | 0.00 | 0.25 | 0.25 | 93 | 1014.8 |
| 20260905213833 | 22 | 166 | 9.7 | 14.5 | 0.00 | 0.25 | 0.25 | 93 | 1014.7 |
| 20260905213330 | 22 | 239 | 3.2 | 4.8 | 0.00 | 0.25 | 0.25 | 94 | 1014.9 |
| 20260905212825 | 22 | 157 | 8.0 | 12.9 | 0.00 | 0.25 | 0.25 | 93 | 1014.8 |
| 20260905212324 | 22 | 133 | 8.0 | 12.9 | 0.00 | 0.25 | 0.25 | 93 | 1014.8 |
| 20260905211819 | 22 | 119 | 6.4 | 12.9 | 0.00 | 0.25 | 0.25 | 93 | 1014.6 |
| 20260905211314 | 22 | 115 | 4.8 | 14.5 | 0.00 | 0.25 | 0.25 | 93 | 1014.9 |
| 20260905210811 | 22 | 106 | 3.2 | 9.7 | 0.00 | 0.25 | 0.25 | 93 | 1014.7 |
| 20260905210310 | 22 | 102 | 6.4 | 14.5 | 0.00 | 0.25 | 0.25 | 93 | 1014.7 |
| 20260905205809 | 22 | 118 | 8.0 | 9.7 | 0.00 | 0.25 | 0.25 | 94 | 1014.7 |
| 20260905205306 | 22 | 167 | 3.2 | 9.7 | 0.00 | 0.25 | 0.25 | 94 | 1014.8 |
| 20260905204803 | 22 | 150 | 4.8 | 11.3 | 0.00 | 0.25 | 0.25 | 94 | 1014.8 |
| 20260905204300 | 22 | 145 | 8.0 | 14.5 | 0.00 | 0.25 | 0.25 | 94 | 1014.8 |
| 20260905203758 | 22 | 274 | 1.6 | 8.0 | 0.00 | 0.25 | 0.25 | 95 | 1014.9 |
| 20260905203254 | 22 | 169 | 3.2 | 4.8 | 0.00 | 0.25 | 0.25 | 94 | 1014.9 |
| 20260905202749 | 22 | 207 | 4.8 | 11.3 | 0.00 | 0.25 | 0.25 | 94 | 1014.8 |
| 20260905202244 | 22 | 79 | 6.4 | 11.3 | 0.00 | 0.25 | 0.25 | 94 | 1015.0 |
| 20260905201740 | 22 | 128 | 6.4 | 11.3 | 0.00 | 0.25 | 0.25 | 94 | 1015.2 |
| 20260905201235 | 22 | 134 | 1.6 | 11.3 | 0.00 | 0.25 | 0.25 | 94 | 1015.2 |
| 20260905200730 | 22 | 169 | 1.6 | 9.7 | 0.00 | 0.25 | 0.25 | 94 | 1014.9 |
| 20260905200226 | 22 | 126 | 8.0 | 12.9 | 0.00 | 0.25 | 0.25 | 94 | 1015.2 |
| 20260905195723 | 22 | 126 | 8.0 | 11.3 | 0.00 | 0.25 | 0.25 | 94 | 1014.9 |
| 20260905195218 | 22 | 148 | 4.8 | 9.7 | 0.00 | 0.25 | 0.25 | 95 | 1015.2 |
| 20260905194714 | 22 | 140 | 3.2 | 12.9 | 0.00 | 0.25 | 0.25 | 95 | 1015.0 |
| 20260905194214 | 22 | 81 | 6.4 | 14.5 | 0.00 | 0.25 | 0.25 | 95 | 1014.9 |
| 20260905193708 | 22 | 138 | 9.7 | 12.9 | 0.00 | 0.25 | 0.25 | 95 | 1015.1 |
| 20260905193203 | 22 | 116 | 11.3 | 12.9 | 0.00 | 0.25 | 0.25 | 95 | 1014.9 |
| 20260905192658 | 22 | 114 | 4.8 | 8.0 | 0.00 | 0.25 | 0.25 | 95 | 1015.0 |
| 20260905192155 | 22 | 45 | 8.0 | 12.9 | 0.00 | 0.25 | 0.25 | 95 | 1015.1 |
| 20260905191654 | 22 | 189 | 1.6 | 8.0 | 0.00 | 0.25 | 0.25 | 95 | 1015.2 |
| 20260905191152 | 22 | 55 | 8.0 | 11.3 | 0.00 | 0.25 | 0.25 | 95 | 1014.9 |
| 20260905190651 | 22 | 41 | 4.8 | 11.3 | 0.00 | 0.25 | 0.25 | 95 | 1014.9 |
| 20260905190150 | 22 | 128 | 8.0 | 9.7 | 0.00 | 0.25 | 0.25 | 95 | 1015.2 |
| 20260905185649 | 22 | 48 | 6.4 | 12.9 | 0.00 | 0.25 | 0.25 | 95 | 1015.1 |
| 20260905185144 | 23 | 72 | 11.3 | 12.9 | 0.00 | 0.25 | 0.25 | 94 | 1015.0 |
| 20260905184643 | 23 | 31 | 8.0 | 9.7 | 0.00 | 0.25 | 0.25 | 94 | 1015.2 |
| 20260905184142 | 23 | 283 | 3.2 | 11.3 | 0.00 | 0.25 | 0.25 | 94 | 1015.0 |
| 20260905183642 | 23 | 61 | 3.2 | 11.3 | 0.00 | 0.25 | 0.25 | 95 | 1014.9 |
| 20260905183137 | 23 | 73 | 3.2 | 4.8 | 0.00 | 0.25 | 0.25 | 94 | 1014.8 |
| 20260905182636 | 23 | 48 | 6.4 | 11.3 | 0.00 | 0.25 | 0.25 | 95 | 1014.9 |
| 20260905182131 | 23 | 293 | 0.0 | 4.8 | 0.00 | 0.25 | 0.25 | 95 | 1014.9 |
| 20260905181626 | 23 | 76 | 4.8 | 9.7 | 0.00 | 0.25 | 0.25 | 94 | 1014.8 |
| 20260905181125 | 23 | 349 | 6.4 | 11.3 | 0.00 | 0.25 | 0.25 | 94 | 1014.9 |
| 20260905180620 | 23 | 36 | 6.4 | 8.0 | 0.00 | 0.25 | 0.25 | 94 | 1015.1 |
| 20260905180115 | 23 | 91 | 8.0 | 11.3 | 0.00 | 0.25 | 0.25 | 94 | 1015.0 |
| 20260905175615 | 22 | 41 | 4.8 | 8.0 | 0.00 | 0.25 | 0.25 | 95 | 1015.0 |
| 20260905175110 | 22 | 119 | 3.2 | 9.7 | 0.00 | 0.25 | 0.25 | 95 | 1014.9 |
| 20260905174605 | 22 | 44 | 1.6 | 4.8 | 0.00 | 0.25 | 0.25 | 96 | 1015.0 |
| 20260905174101 | 22 | 351 | 3.2 | 3.2 | 0.00 | 0.25 | 0.25 | 96 | 1015.0 |
| 20260905173557 | 22 | 359 | 4.8 | 9.7 | 0.00 | 0.25 | 0.25 | 97 | 1015.1 |
| 20260905173052 | 22 | 27 | 4.8 | 4.8 | 0.00 | 0.25 | 0.25 | 96 | 1015.1 |
| 20260905172551 | 22 | 153 | 8.0 | 8.0 | 0.00 | 0.25 | 0.25 | 97 | 1015.1 |
| 20260905172047 | 22 | 349 | 4.8 | 9.7 | 0.00 | 0.25 | 0.25 | 97 | 1015.0 |
| 20260905171543 | 22 | 142 | 3.2 | 8.0 | 0.00 | 0.25 | 0.25 | 97 | 1015.1 |
| 20260905171038 | 22 | 214 | 1.6 | 9.7 | 0.00 | 0.25 | 0.25 | 97 | 1015.2 |
| 20260905170535 | 22 | 80 | 1.6 | 9.7 | 0.00 | 0.25 | 0.25 | 97 | 1015.2 |
| 20260905170030 | 22 | 28 | 4.8 | 9.7 | 0.00 | 0.25 | 0.25 | 96 | 1015.3 |
| 20260905165525 | 22 | 83 | 4.8 | 9.7 | 0.00 | 0.25 | 0.25 | 96 | 1015.1 |
| 20260905165020 | 22 | 5 | 3.2 | 8.0 | 0.00 | 0.25 | 0.25 | 97 | 1015.0 |
| 20260905164514 | 22 | 25 | 6.4 | 9.7 | 0.00 | 0.25 | 0.25 | 97 | 1015.1 |
| 20260905164009 | 22 | 26 | 4.8 | 8.0 | 0.00 | 0.25 | 0.25 | 97 | 1015.1 |
| 20260905163505 | 22 | 299 | 1.6 | 9.7 | 0.00 | 0.25 | 0.25 | 97 | 1015.4 |
| 20260905163001 | 22 | 41 | 6.4 | 9.7 | 0.00 | 0.25 | 0.25 | 97 | 1015.1 |
| 20260905162456 | 22 | 325 | 1.6 | 8.0 | 0.00 | 0.25 | 0.25 | 97 | 1015.1 |
| 20260905161951 | 22 | 27 | 3.2 | 11.3 | 0.00 | 0.25 | 0.25 | 97 | 1015.2 |
| 20260905161450 | 22 | 343 | 4.8 | 8.0 | 0.00 | 0.25 | 0.25 | 97 | 1015.0 |
| 20260905160949 | 22 | 45 | 4.8 | 11.3 | 0.00 | 0.25 | 0.25 | 96 | 1015.1 |
| 20260905160442 | 23 | 15 | 4.8 | 11.3 | 0.00 | 0.25 | 0.25 | 95 | 1015.2 |
| 20260905155941 | 23 | 210 | 1.6 | 4.8 | 0.00 | 0.25 | 0.25 | 92 | 1015.1 |
| 20260905155437 | 23 | 258 | 3.2 | 3.2 | 0.00 | 0.25 | 0.25 | 93 | 1015.1 |
| 20260905154935 | 23 | 177 | 1.6 | 4.8 | 0.00 | 0.25 | 0.25 | 93 | 1014.9 |
| 20260905154431 | 23 | 190 | 1.6 | 4.8 | 0.00 | 0.25 | 0.25 | 93 | 1014.7 |
| 20260905153926 | 23 | 105 | 3.2 | 9.7 | 0.00 | 0.25 | 0.25 | 93 | 1015.0 |
| 20260905153423 | 23 | 130 | 4.8 | 4.8 | 0.00 | 0.25 | 0.25 | 93 | 1014.9 |
| 20260905152922 | 23 | 167 | 1.6 | 9.7 | 0.00 | 0.25 | 0.25 | 93 | 1014.9 |
| 20260905152421 | 23 | 143 | 4.8 | 8.0 | 0.00 | 0.25 | 0.25 | 94 | 1014.8 |
| 20260905151917 | 23 | 89 | 4.8 | 8.0 | 0.00 | 0.25 | 0.25 | 93 | 1014.7 |
| 20260905151413 | 23 | 208 | 1.6 | 4.8 | 0.00 | 0.25 | 0.25 | 94 | 1014.7 |
| 20260905150912 | 23 | 103 | 8.0 | 9.7 | 0.00 | 0.25 | 0.25 | 93 | 1014.7 |
| 20260905150407 | 23 | 181 | 3.2 | 3.2 | 0.00 | 0.25 | 0.25 | 93 | 1014.6 |
| 20260905145903 | 23 | 99 | 4.8 | 4.8 | 0.00 | 0.25 | 0.25 | 94 | 1014.7 |
| 20260905145358 | 22 | 125 | 6.4 | 11.3 | 0.00 | 0.25 | 0.25 | 95 | 1014.6 |
| 20260905144858 | 22 | 121 | 4.8 | 8.0 | 0.00 | 0.25 | 0.25 | 96 | 1014.6 |
| 20260905144353 | 22 | 137 | 6.4 | 11.3 | 0.00 | 0.25 | 0.25 | 96 | 1014.4 |
| 20260905143852 | 22 | 147 | 4.8 | 4.8 | 0.00 | 0.25 | 0.25 | 97 | 1014.6 |
| 20260905143346 | 22 | 199 | 1.6 | 8.0 | 0.00 | 0.25 | 0.25 | 97 | 1014.7 |
| 20260905142846 | 22 | 129 | 3.2 | 8.0 | 0.00 | 0.25 | 0.25 | 98 | 1014.8 |
| 20260905142344 | 22 | 219 | 3.2 | 8.0 | 0.00 | 0.25 | 0.25 | 98 | 1015.0 |
| 20260905141840 | 21 | 119 | 4.8 | 4.8 | 0.00 | 0.25 | 0.25 | 98 | 1014.8 |
| 20260905141336 | 21 | 183 | 4.8 | 9.7 | 0.00 | 0.25 | 0.25 | 99 | 1014.8 |
| 20260905140831 | 21 | 217 | 0.0 | 3.2 | 0.00 | 0.25 | 0.25 | 99 | 1014.6 |
| 20260905140326 | 21 | 187 | 3.2 | 8.0 | 0.00 | 0.25 | 0.25 | 99 | 1014.6 |
| 20260905135824 | 21 | 140 | 1.6 | 3.2 | 0.00 | 0.25 | 0.25 | 99 | 1014.6 |
| 20260905135321 | 21 | 188 | 3.2 | 8.0 | 0.00 | 0.25 | 0.25 | 99 | 1014.2 |
| 20260905134815 | 21 | 210 | 1.6 | 4.8 | 0.00 | 0.25 | 0.25 | 99 | 1014.4 |
| 20260905134309 | 21 | 124 | 3.2 | 9.7 | 0.00 | 0.25 | 0.25 | 99 | 1014.3 |
| 20260905133809 | 21 | 153 | 8.0 | 9.7 | 0.00 | 0.25 | 0.25 | 99 | 1014.2 |
| 20260905133304 | 21 | 126 | 6.4 | 11.3 | 0.00 | 0.25 | 0.25 | 99 | 1014.2 |
| 20260905132803 | 21 | 212 | 1.6 | 4.8 | 0.00 | 0.25 | 0.25 | 99 | 1014.4 |
| 20260905132259 | 21 | 155 | 4.8 | 14.5 | 0.00 | 0.25 | 0.25 | 99 | 1014.3 |
| 20260905131754 | 21 | 207 | 1.6 | 4.8 | 0.00 | 0.25 | 0.25 | 99 | 1014.2 |
| 20260905131249 | 21 | 156 | 4.8 | 9.7 | 0.00 | 0.25 | 0.25 | 99 | 1014.1 |
| 20260905130744 | 21 | 141 | 4.8 | 4.8 | 0.00 | 0.25 | 0.25 | 99 | 1014.1 |
| 20260905130243 | 21 | 105 | 6.4 | 9.7 | 0.00 | 0.25 | 0.25 | 99 | 1014.0 |
| 20260905125738 | 21 | 230 | 0.0 | 1.6 | 0.00 | 0.25 | 0.25 | 99 | 1013.9 |
| 20260905125233 | 21 | 115 | 4.8 | 17.7 | 0.00 | 0.25 | 0.25 | 99 | 1014.1 |
| 20260905124730 | 21 | 205 | 1.6 | 3.2 | 0.00 | 0.25 | 0.25 | 99 | 1014.2 |
| 20260905124225 | 21 | 225 | 3.2 | 11.3 | 0.00 | 0.25 | 0.25 | 99 | 1014.1 |
| 20260905123720 | 21 | 200 | 4.8 | 8.0 | 0.00 | 0.25 | 0.25 | 99 | 1014.1 |
| 20260905123218 | 20 | 153 | 4.8 | 8.0 | 0.00 | 0.25 | 0.25 | 99 | 1014.1 |
| 20260905122717 | 20 | 160 | 6.4 | 8.0 | 0.00 | 0.25 | 0.25 | 99 | 1014.1 |
| 20260905122211 | 20 | 148 | 4.8 | 8.0 | 0.00 | 0.25 | 0.25 | 99 | 1013.9 |
| 20260905121706 | 20 | 209 | 3.2 | 9.7 | 0.00 | 0.25 | 0.25 | 99 | 1013.9 |
| 20260905121203 | 20 | 101 | 1.6 | 4.8 | 0.00 | 0.25 | 0.25 | 99 | 1013.8 |
| 20260905120702 | 20 | 127 | 8.0 | 11.3 | 0.00 | 0.25 | 0.25 | 99 | 1013.8 |
| 20260905120156 | 20 | 136 | 4.8 | 9.7 | 0.00 | 0.25 | 0.25 | 99 | 1013.8 |
| 20260905115656 | 20 | 130 | 4.8 | 9.7 | 0.00 | 0.25 | 0.25 | 99 | 1013.6 |